Member area
ImprimablePdf
Erpent, 18/02/2012, BEL - La Printanière
List of reports > Delhalle - 15.4km - Results + Video
Search: Page: [1]
65 Entries
 
Complains are not accepted anymore. Results are final.
PlaceNrNameAgeNATLeagueTeamRealTimeTkmMoy.ScrPtsCity
1.20FDELDICQUE Louise31BELCSDY1:05:091:05:114:11 14.3635952LOUVAIN LA NEUVE
2.1547FLEROY Valérie38BELSPEEDX1:13:481:13:484:44 12.68128798LANEFFE
3.1470FCUPERS Dorothée25BELENJAMBEE1:14:001:14:044:45 12.64131794BRUXELLES
4.1083FGOFFINET Florence34BELSMACSMAC1:16:141:16:204:54 12.26176749JAMBES
5.1447FOULUKOFF Anais24BELSMAC1:17:061:17:134:57 12.12193732
6.1265FBROSENS Katleen29BELAVNAVN1:17:311:18:035:01 11.99212720RIJKEVORSEL
7.1024FCIECHANOWSKI Tatiana31BEL1:21:351:22:105:16 11.39296639DAVE
8.1355FLHOTEL Laurence39BEL1:22:261:22:455:19 11.31312624
9.1541FOPSOMMER Marie29BEL1:23:461:24:055:24 11.13344597
10.263FSOENEN Virginie26BELSMACMYSTERE1:24:291:24:345:26 11.07354585NAMUR
11.979FCOENEN Chantal38BEL1:25:141:25:385:30 10.93381566BEKKEVOORT
12.1350FSIMORD Laurie30CAN1:26:161:26:425:34 10.80395549
13.1611FGROVONIUS Gwenaelle34BEL1:26:371:28:205:40 10.60430532NAMUR
14.1172FTUMSON Aurore30BEL1:28:541:29:225:44 10.47451500ANDENNE
15.644FDUJACQUIER Magali37BELESMESM1:29:131:29:365:45 10.45455495MONT-SUR-MARCHIENNE
16.1353FNEUVILLE Virginie31BELSMAC1:32:151:33:045:58 10.06518439
17.1392FGREGOIRE Aude24BEL1:33:361:34:506:05 9.87543416FLAWINNE
18.798FDEBONI Malorie28BELCSFMYSTERE1:34:511:34:556:06 9.86547402BRUXELLES
19.1471FHUMBLET Celine26BEL1:35:311:35:506:09 9.77570386
20.1540FVAMQUAETHEM Isabelle29BEL1:34:531:35:516:09 9.77571392
21.1131FMEYAN Valériane30BEL1:35:481:36:166:11 9.72576381ANDENNE
22.1121FMARION Carine37BEL1:35:111:36:176:11 9.72577387WÉPION
23.1605FSIMON Céline29BELSMAC1:36:091:36:286:11 9.70583375JAMBES
24.1179FVERPOORTEN Leïla35BEL1:35:581:37:086:14 9.64595373LISOGNE
25.105FDEMOULIN Benedicte35BELCOVIS1:37:421:38:016:17 9.55610350LUSTIN
26.1344FMICHAU Marie-Pierre26BEL1:38:121:38:316:19 9.50622341SAINT-MARC
27.1446FSIMON Julie37BELJCPMF GEMBLOUX1:37:421:38:426:20 9.48625345GEMBLOUX
28.1522FVERHOEVEN Geraldine39BELNAC1:38:061:38:496:21 9.47628339
29.1372FLECLERCQ Sophie24BEL1:38:291:39:216:23 9.42640331
30.929FCHRISTOPHE Na Young39BELCSFMYSTERE1:38:391:39:316:23 9.41645328FOREST
31.1201FWECK Stephanie37BEL1:38:401:39:316:23 9.41646327
32.1373FQUINET Benedicte34BEL1:40:081:41:216:30 9.24664307
33.1468FDESTRES Linda38BELARCH1:42:051:42:506:36 9.10684281MIECRET
34.1086FHAELTERMAN Florence33BELSPTWAVRE1:41:471:43:026:37 9.08690281NETHEN
35.1438FBALZAT Sonia39BELETHIAS1:41:581:43:216:38 9.06697276TEMPLOUX
36.1449FSENS ESPEL Roser36BELJCPMF G1:42:381:43:396:39 9.03699270
37.1076FGAUTHIER Sylvie27BEL1:43:261:44:076:41 8.99709259GESVES
38.1227FRAQUEZ Perrine31BEL1:44:041:44:496:44 8.93715250
39.838FFIAS Lore39BELHAMURABI1:45:091:45:566:48 8.84722238LINT
40.953FWANSARD Marie29BELRCBG1:46:121:47:056:52 8.74738223HAUT-FAYS
41.1532FFRANCIS Sophie37BELUSBW1:47:501:48:126:57 8.65755202LA LOUVIERE
42.1480FDE KEYSER Lies31BELAMBIANCE1:48:011:48:406:58 8.61760198HALLE
43.1619FMUSIALOWSKA Ewa32POLRCBRCB1:47:371:48:556:59 8.59764200BRUXELLES
44.1292FHORLAIT Celine36BEL1:48:131:49:097:00 8.58768193
45.968FWALTER Marie30BEL1:48:581:50:017:04 8.51775184ISNES
46.1056FDEWULF Lauriane26BEL1:48:471:50:147:04 8.49778185ERPENT
47.252FGEORGE Nathalie33BELSMAC1:49:411:50:167:05 8.49779176BELGRADE
48.1045FDELFORGE Julie37BEL1:49:071:50:217:05 8.48781180DAVE
49.1039FDECERF Isabelle39BELWRC1:50:381:52:117:12 8.34795162WARISOULX
50.1362FCAHUN Caroline33BEL1:51:201:52:347:13 8.32799155RIXENSART
51.1308FBASTIAANSE Heloise29BELJCPMF1:53:031:54:067:19 8.20808137
52.1378FARNOULD Amandine35BEL1:53:141:54:217:20 8.19811134
53.1377FFERNEMONT Virgnie32BEL1:53:151:54:217:20 8.19812134VEDRIN
54.1365FWILLAERT Anne-Gaelle32BEL1:53:181:54:257:21 8.18813133VEZIN
55.1379FQUERTINIER Anne36BEL1:53:491:55:187:24 8.12819126
56.1164FSCHNEIDER Karin37BELCHICKEN RUN1:54:481:56:097:27 8.06826115CORROY-LE-CHATEAU
57.1229FVAN THIELEN Mieke35BEL1:55:551:57:157:31 7.98831104
58.973FMARICHAL Stephanie39BEL1:57:281:58:537:38 7.8783590GRIVEGNEE
59.918FCAT Carine38BELZEN-ITUDE2:01:072:02:347:52 7.6485454LA LOUVIERE
60.1184FWARNY Sabrina37BELOCAN2:03:082:03:247:55 7.5985837ANDENNE
61.1473FEVRARD Anne-Pascale36BELWAL'COURSE2:08:072:08:578:16 7.268637THY-LE-CHÂTEAU
62.1029FCUVELIER Aurélie28BELSMAC2:10:392:10:598:24 7.158666NAMUR
63.1516FVAN POUCKE Valerie34BEL2:18:512:19:568:59 6.698753BAISY THY
64.1278FLALOUX Aurore34BEL2:22:342:24:009:14 6.508763
65.1252FCASTLEDINE Catherine31GBR2:44:102:44:2410:33 5.698821BRUSSELS
DNF: did not finish; DSQ: disqualified; Speed in km/h